Location: Centerville
(32.8776°N, 96.6203°W)
Time: 02:12:25
(UTC+00:00)

Cosmos 1933 - Pass Details

Date: 17 June 2021
Orbit: 547 x 562 km, 82.5° (Epoch: 27 July)

Event Time Altitude Azimuth Distance (km) Brightness Sun altitude
Rises 09:13:01 0° 352° (N) 2,753 7.5 -21.3°
Reaches altitude 10° 09:15:12 10° 352° (N) 1,855 6.5 -21.0°
Maximum altitude 09:19:17 82° 265° (W) 571 3.2 -20.4°
Enters shadow 09:20:13 52° 185° (S) 699 3.5 -20.3°
